Location: Unspecified
(43.4680°N, 87.1740°E)
Time: 21:35:51
(UTC+00:00)

FALCON 9 R/B - Pass Details

Date: 17 April 2021
Orbit: 287 x 10095 km, 34.5° (Epoch: 11 May)

Event Time Altitude Azimuth Distance (km) Brightness Sun altitude
Rises 13:28:36 0° 254° (WSW) 3,343 6.3 -6.3°
Reaches altitude 10° 13:30:16 10° 249° (WSW) 2,790 5.7 -6.6°
Maximum altitude 13:36:53 55° 172° (S) 2,267 4.2 -7.7°
Enters shadow 14:01:40 10° 104° (ESE) 9,354 6.9 -11.8°
